DW6221 Weather Reports


Display with metric or nautical units.
time (UTC)temp
F
wind
direction
speed
MPH
gust
MPH
rain 1hr
in
rain 24hr
in
rain mn
in
humidity
%
barometer
mb
20190318163122 45 171 1.0 5.0 0.00 0.00 0.00 37 1026.2
20190318161553 43 144 3.0 7.0 0.00 0.00 0.00 39 1026.1
20190318160128 43 207 3.0 5.0 0.00 0.00 0.00 41 1026.1
20190318154604 42 45 1.0 5.0 0.00 0.00 0.00 40 1026.2
20190318151543 40 109 1.0 4.0 0.00 0.00 0.00 42 1026.5
20190318150101 39 202 1.0 7.0 0.00 0.00 0.00 45 1026.5
20190318144550 39 165 0.0 3.0 0.00 0.00 0.00 49 1026.5
20190318143037 37 173 0.0 5.0 0.00 0.00 0.00 51 1026.6
20190318140027 35 184 1.0 5.0 0.00 0.00 0.00 55 1026.4
20190318134501 34 134 0.0 1.0 0.00 0.00 0.00 58 1026.2
20190318133155 34 131 0.0 1.0 0.00 0.00 0.00 59 1026.1
20190318131648 32 288 0.0 4.0 0.00 0.00 0.00 62 1026.0
20190318130121 30 155 1.0 4.0 0.00 0.00 0.00 67 1025.8
20190318124621 29 114 0.0 1.0 0.00 0.00 0.00 75 1025.7
20190318123140 28 106 0.0 1.0 0.00 0.00 0.00 71 1025.6
20190318121638 28 5 0.0 0.0 0.00 0.00 0.00 72 1025.4
20190318120107 28 5 0.0 0.0 0.00 0.00 0.00 73 1025.2
20190318114636 29 5 0.0 0.0 0.00 0.00 0.00 71 1025.1
20190318113114 29 5 0.0 0.0 0.00 0.00 0.00 70 1025.0
20190318111652 29 5 0.0 0.0 0.00 0.00 0.00 70 1025.1
20190318110151 29 5 0.0 0.0 0.00 0.00 0.00 71 1025.0
20190318104604 29 5 0.0 0.0 0.00 0.00 0.00 71 1024.7
20190318103105 29 5 0.0 0.0 0.00 0.00 0.00 74 1024.8
20190318101612 29 5 0.0 0.0 0.00 0.00 0.00 73 1024.5
20190318100040 29 5 0.0 0.0 0.00 0.00 0.00 74 1024.4
20190318094553 29 5 0.0 0.0 0.00 0.00 0.00 74 1024.2
20190318093109 29 5 0.0 0.0 0.00 0.00 0.00 75 1024.1
20190318091545 28 5 0.0 0.0 0.00 0.00 0.00 77 1023.9
20190318090106 28 5 0.0 0.0 0.00 0.00 0.00 81 1023.8
20190318084547 28 5 0.0 0.0 0.00 0.00 0.00 82 1023.7
20190318083030 28 5 0.0 0.0 0.00 0.00 0.00 81 1023.6
20190318081547 28 5 0.0 0.0 0.00 0.00 0.00 82 1023.6
20190318080057 28 5 0.0 0.0 0.00 0.00 0.00 83 1023.5
20190318074533 27 5 0.0 0.0 0.00 0.00 0.00 81 1023.6
20190318073102 27 5 0.0 0.0 0.00 0.00 0.00 79 1023.6
20190318071531 27 5 0.0 0.0 0.00 0.00 0.00 78 1023.5
20190318070034 28 5 0.0 0.0 0.00 0.00 0.00 78 1023.6
20190318064532 28 5 0.0 0.0 0.00 0.00 0.00 77 1023.7
20190318063016 28 5 0.0 0.0 0.00 0.00 0.00 77 1023.8
20190318061534 28 5 0.0 0.0 0.00 0.00 0.00 79 1023.7
20190318060017 28 5 0.0 0.0 0.00 0.00 0.00 78 1023.7
20190318054512 28 5 0.0 0.0 0.00 0.00 0.00 80 1023.8
20190318053011 28 5 0.0 0.0 0.00 0.00 0.00 78 1024.0
20190318051524 28 5 0.0 0.0 0.00 0.00 0.00 78 1024.1
20190318050004 28 5 0.0 0.0 0.00 0.00 0.00 77 1024.1
20190318044519 28 5 0.0 0.0 0.00 0.00 0.00 76 1024.2
20190318043002 28 5 0.0 0.0 0.00 0.00 0.00 76 1024.2
20190318041638 28 5 0.0 0.0 0.00 0.00 0.00 76 1024.1
20190318040145 28 5 0.0 0.0 0.00 0.00 0.00 74 1024.2
20190318034708 28 5 0.0 0.0 0.00 0.00 0.00 73 1024.0
20190318033127 29 5 0.0 0.0 0.00 0.00 0.00 73 1023.9
20190318031704 29 5 0.0 0.0 0.00 0.00 0.00 69 1023.8
20190318030209 29 5 0.0 0.0 0.00 0.00 0.00 67 1023.6
20190318024720 30 5 0.0 0.0 0.00 0.00 0.00 65 1023.5
20190318023136 30 5 0.0 0.0 0.00 0.00 0.00 65 1023.4
20190318021732 31 5 0.0 0.0 0.00 0.00 0.00 64 1023.3
20190318020326 31 5 0.0 0.0 0.00 0.00 0.00 63 1023.3
20190318014716 32 5 0.0 0.0 0.00 0.00 0.00 62 1023.3
20190318013237 33 5 0.0 0.0 0.00 0.00 0.00 58 1023.3
20190318011817 34 5 0.0 0.0 0.00 0.00 0.00 56 1023.3
20190318010217 35 5 0.0 0.0 0.00 0.00 0.00 55 1023.2
20190318004617 36 5 0.0 0.0 0.00 0.00 0.00 52 1023.0
20190318003132 37 5 0.0 0.0 0.00 0.00 0.00 46 1022.7
20190318001639 38 5 0.0 0.0 0.00 0.00 0.00 47 1022.6
20190318000133 39 5 0.0 0.0 0.00 0.00 0.00 44 1022.5
20190317234632 40 5 0.0 1.0 0.00 0.00 0.00 43 1022.6
20190317233209 40 5 0.0 0.0 0.00 0.00 0.00 41 1022.5
20190317231713 41 5 0.0 2.0 0.00 0.00 0.00 39 1022.5
20190317230059 42 347 0.0 6.0 0.00 0.00 0.00 39 1022.2
20190317224645 42 5 1.0 7.0 0.00 0.00 0.00 39 1022.0
20190317223137 42 346 4.0 11.0 0.00 0.00 0.00 37 1021.9
20190317221637 43 360 1.0 6.0 0.00 0.00 0.00 38 1021.7
20190317220111 43 319 0.0 5.0 0.00 0.00 0.00 37 1021.7
20190317214641 43 360 0.0 7.0 0.00 0.00 0.00 38 1021.6
20190317213124 44 349 4.0 9.0 0.00 0.00 0.00 37 1021.6
20190317211645 44 343 1.0 12.0 0.00 0.00 0.00 37 1021.6
20190317210125 44 339 3.0 12.0 0.00 0.00 0.00 38 1021.5
20190317204642 44 9 4.0 10.0 0.00 0.00 0.00 37 1021.7
20190317203200 45 346 4.0 10.0 0.00 0.00 0.00 36 1021.8
20190317201613 45 257 2.0 12.0 0.00 0.00 0.00 36 1021.7
20190317200121 45 296 3.0 7.0 0.00 0.00 0.00 37 1022.0
20190317194615 45 17 1.0 9.0 0.00 0.00 0.00 37 1021.9
20190317193103 44 53 2.0 9.0 0.00 0.00 0.00 36 1022.0
20190317191549 44 342 1.0 6.0 0.00 0.00 0.00 37 1022.2
20190317190041 44 334 2.0 12.0 0.00 0.00 0.00 38 1022.4
20190317184535 44 311 4.0 9.0 0.00 0.00 0.00 38 1022.6
20190317183047 44 273 2.0 15.0 0.00 0.00 0.00 40 1022.7
20190317181614 43 246 2.0 9.0 0.00 0.00 0.00 42 1023.0
20190317180112 42 355 4.0 10.0 0.00 0.00 0.00 42 1023.3
20190317174550 43 340 2.0 7.0 0.00 0.00 0.00 39 1023.5
20190317173053 43 355 1.0 7.0 0.00 0.00 0.00 40 1023.7
20190317171519 42 220 4.0 11.0 0.00 0.00 0.00 44 1023.8
20190317170021 41 343 4.0 11.0 0.00 0.00 0.00 42 1024.0
20190317164515 41 344 8.0 14.0 0.00 0.00 0.00 43 1024.1